When you browse on this site, cookies collect data to enhance your experience and personalize the content and advertising you see.
Visit our Privacy Policy to learn more. By continuing to use the site, you agree to this use of cookies and data.
  • In France
  • List of Countries
  • For 7 days
  • Water Temperature
  • Weather Map
  • Weather Widgets
  • user-avatar
    Login

    Hourly Weather Sevan

    Today, 23 August, Friday

    Time Temperature Precipitation Wind Pressure Humidity
    00:00 +19°C° 0 mm 4 mps 641 mmHg 43%
    01:00 +19°C° 0 mm 4 mps 642 mmHg 43%
    02:00 +18°C° 0 mm 3 mps 642 mmHg 43%
    03:00 +18°C° 0 mm 3 mps 642 mmHg 43%
    04:00 +18°C° 0 mm 2 mps 642 mmHg 43%
    05:00 +18°C° 0 mm 2 mps 642 mmHg 42%
    06:00 +18°C° 0 mm 2 mps 642 mmHg 42%
    07:00 +21°C° 0 mm 2 mps 642 mmHg 36%
    08:00 +24°C° 0 mm 2 mps 643 mmHg 31%
    09:00 +27°C° 0 mm 2 mps 644 mmHg 26%
    10:00 +29°C° 0 mm 3 mps 644 mmHg 23%
    11:00 +30°C° 0 mm 3 mps 644 mmHg 21%
    12:00 +33°C° 0 mm 3 mps 644 mmHg 18%
    13:00 +33°C° 0 mm 4 mps 644 mmHg 18%
    14:00 +34°C° 0 mm 4 mps 644 mmHg 18%
    15:00 +34°C° 0 mm 5 mps 644 mmHg 18%
    16:00 +32°C° 0 mm 5 mps 643 mmHg 25%
    17:00 +29°C° 0 mm 5 mps 642 mmHg 31%
    18:00 +27°C° 0 mm 6 mps 642 mmHg 38%
    19:00 +25°C° 0 mm 5 mps 642 mmHg 42%
    20:00 +23°C° 0 mm 5 mps 642 mmHg 46%
    21:00 +21°C° 0 mm 4 mps 642 mmHg 50%
    22:00 +20°C° 0 mm 4 mps 642 mmHg 50%
    23:00 +20°C° 0 mm 3 mps 642 mmHg 49%

    Tomorrow, 24 August, Saturday

    Time Temperature Precipitation Wind Pressure Humidity
    00:00 +20°C° 0 mm 3 mps 642 mmHg 49%
    01:00 +19°C° 0 mm 3 mps 642 mmHg 49%
    02:00 +19°C° 0 mm 2 mps 642 mmHg 49%
    03:00 +18°C° 0 mm 2 mps 642 mmHg 49%
    04:00 +18°C° 0 mm 2 mps 642 mmHg 49%
    05:00 +18°C° 0 mm 2 mps 642 mmHg 50%
    06:00 +19°C° 0 mm 1 mps 642 mmHg 50%
    07:00 +22°C° 0 mm 1 mps 643 mmHg 44%
    08:00 +24°C° 0 mm 2 mps 644 mmHg 38%
    09:00 +27°C° 0 mm 2 mps 645 mmHg 32%
    10:00 +28°C° 0 mm 2 mps 645 mmHg 29%
    11:00 +30°C° 0 mm 2 mps 645 mmHg 26%
    12:00 +31°C° 0 mm 3 mps 645 mmHg 22%
    13:00 +33°C° 0 mm 3 mps 645 mmHg 21%
    14:00 +32°C° 0 mm 2 mps 645 mmHg 20%
    15:00 +32°C° 0 mm 2 mps 645 mmHg 20%
    16:00 +30°C° 0.3 mm 3 mps 645 mmHg 28%
    17:00 +28°C° 0.3 mm 4 mps 644 mmHg 35%
    18:00 +26°C° 0.3 mm 5 mps 644 mmHg 43%
    19:00 +25°C° 0.2 mm 4 mps 644 mmHg 49%
    20:00 +22°C° 0.2 mm 4 mps 644 mmHg 55%
    21:00 +20°C° 0.2 mm 3 mps 644 mmHg 61%
    22:00 +20°C° 0 mm 3 mps 644 mmHg 62%
    23:00 +19°C° 0 mm 2 mps 644 mmHg 62%

    Day after tomorrow, 25 August, Sunday

    Time Temperature Precipitation Wind Pressure Humidity
    00:00 +19°C° 0 mm 2 mps 644 mmHg 62%
    01:00 +19°C° 0.1 mm 1 mps 643 mmHg 63%
    02:00 +19°C° 0.1 mm 1 mps 643 mmHg 63%
    03:00 +19°C° 0.1 mm 1 mps 643 mmHg 63%
    04:00 +19°C° 0 mm 1 mps 643 mmHg 62%
    05:00 +19°C° 0 mm 1 mps 643 mmHg 62%
    06:00 +19°C° 0 mm 1 mps 643 mmHg 61%
    07:00 +21°C° 0 mm 1 mps 644 mmHg 54%
    08:00 +24°C° 0 mm 1 mps 644 mmHg 47%
    09:00 +26°C° 0 mm 1 mps 645 mmHg 40%
    10:00 +28°C° 0 mm 2 mps 645 mmHg 36%
    11:00 +29°C° 0 mm 2 mps 645 mmHg 32%
    12:00 +30°C° 0 mm 3 mps 645 mmHg 28%
    13:00 +31°C° 0 mm 3 mps 645 mmHg 27%
    14:00 +31°C° 0 mm 3 mps 644 mmHg 26%
    15:00 +31°C° 0 mm 3 mps 644 mmHg 26%
    16:00 +30°C° 0 mm 3 mps 644 mmHg 31%
    17:00 +29°C° 0 mm 3 mps 643 mmHg 36%
    18:00 +28°C° 0 mm 4 mps 643 mmHg 41%
    19:00 +26°C° 0 mm 4 mps 643 mmHg 46%
    20:00 +25°C° 0 mm 4 mps 643 mmHg 51%
    21:00 +22°C° 0 mm 4 mps 643 mmHg 56%
    22:00 +22°C° 0 mm 4 mps 643 mmHg 55%
    23:00 +21°C° 0 mm 3 mps 643 mmHg 54%

    26 August, Monday

    Time Temperature Precipitation Wind Pressure Humidity
    00:00 +21°C° 0 mm 3 mps 644 mmHg 54%
    01:00 +20°C° 0.1 mm 3 mps 643 mmHg 55%
    02:00 +20°C° 0.1 mm 2 mps 643 mmHg 56%
    03:00 +19°C° 0.1 mm 2 mps 642 mmHg 57%
    04:00 +19°C° 0 mm 2 mps 643 mmHg 57%
    05:00 +19°C° 0 mm 2 mps 643 mmHg 58%
    06:00 +19°C° 0 mm 2 mps 643 mmHg 58%
    07:00 +23°C° 0 mm 2 mps 644 mmHg 51%
    08:00 +25°C° 0 mm 2 mps 644 mmHg 45%
    09:00 +27°C° 0 mm 2 mps 645 mmHg 38%
    10:00 +29°C° 0 mm 2 mps 645 mmHg 34%
    11:00 +30°C° 0 mm 2 mps 645 mmHg 30%
    12:00 +33°C° 0 mm 3 mps 645 mmHg 26%
    13:00 +34°C° 0 mm 2 mps 645 mmHg 24%
    14:00 +34°C° 0 mm 2 mps 645 mmHg 22%
    15:00 +35°C° 0 mm 2 mps 644 mmHg 20%
    16:00 +30°C° 0.6 mm 3 mps 644 mmHg 36%
    17:00 +26°C° 0.6 mm 3 mps 643 mmHg 53%
    18:00 +21°C° 0.6 mm 4 mps 642 mmHg 69%
    19:00 +21°C° 1.3 mm 4 mps 643 mmHg 68%
    20:00 +20°C° 1.3 mm 5 mps 643 mmHg 67%
    21:00 +20°C° 1.3 mm 5 mps 644 mmHg 65%
    22:00 +20°C° 0.2 mm 4 mps 644 mmHg 66%
    23:00 +19°C° 0.2 mm 3 mps 643 mmHg 66%

    27 August, Tuesday

    Time Temperature Precipitation Wind Pressure Humidity
    00:00 +19°C° 0.2 mm 2 mps 643 mmHg 67%
    01:00 +19°C° 0.2 mm 2 mps 643 mmHg 66%
    02:00 +18°C° 0.2 mm 2 mps 643 mmHg 65%
    03:00 +19°C° 0.2 mm 1 mps 642 mmHg 64%
    04:00 +19°C° 0 mm 1 mps 643 mmHg 64%
    05:00 +19°C° 0 mm 1 mps 643 mmHg 63%
    06:00 +20°C° 0 mm 1 mps 643 mmHg 63%
    07:00 +22°C° 0 mm 1 mps 643 mmHg 57%
    08:00 +23°C° 0 mm 2 mps 644 mmHg 51%
    09:00 +25°C° 0 mm 2 mps 644 mmHg 45%
    10:00 +27°C° 0 mm 2 mps 644 mmHg 39%
    11:00 +29°C° 0 mm 2 mps 644 mmHg 32%
    12:00 +30°C° 0 mm 2 mps 644 mmHg 26%
    13:00 +31°C° 0.1 mm 3 mps 644 mmHg 25%
    14:00 +33°C° 0.1 mm 3 mps 643 mmHg 23%
    15:00 +33°C° 0.1 mm 3 mps 643 mmHg 22%
    16:00 +31°C° 0 mm 3 mps 643 mmHg 28%
    17:00 +29°C° 0 mm 3 mps 642 mmHg 35%
    18:00 +28°C° 0 mm 3 mps 642 mmHg 42%
    19:00 +26°C° 0 mm 4 mps 641 mmHg 48%
    20:00 +23°C° 0 mm 5 mps 641 mmHg 55%
    21:00 +21°C° 0 mm 6 mps 641 mmHg 62%
    22:00 +20°C° 0 mm 5 mps 641 mmHg 63%
    23:00 +20°C° 0 mm 4 mps 641 mmHg 64%

    28 August, Wednesday

    Time Temperature Precipitation Wind Pressure Humidity
    00:00 +19°C° 0 mm 4 mps 641 mmHg 65%
    01:00 +19°C° 0 mm 3 mps 641 mmHg 66%
    02:00 +18°C° 0 mm 3 mps 641 mmHg 67%
    03:00 +17°C° 0 mm 2 mps 640 mmHg 68%
    04:00 +17°C° 0 mm 2 mps 641 mmHg 68%
    05:00 +17°C° 0 mm 2 mps 641 mmHg 68%
    06:00 +17°C° 0 mm 2 mps 641 mmHg 68%
    07:00 +20°C° 0 mm 2 mps 642 mmHg 61%
    08:00 +23°C° 0 mm 1 mps 642 mmHg 54%
    09:00 +25°C° 0 mm 1 mps 643 mmHg 47%
    10:00 +26°C° 0.2 mm 2 mps 643 mmHg 43%
    11:00 +28°C° 0.2 mm 2 mps 643 mmHg 39%
    12:00 +29°C° 0.2 mm 2 mps 643 mmHg 34%
    13:00 +30°C° 0.2 mm 3 mps 643 mmHg 33%
    14:00 +30°C° 0.2 mm 4 mps 643 mmHg 32%
    15:00 +30°C° 0.2 mm 5 mps 642 mmHg 30%
    16:00 +29°C° 0 mm 5 mps 642 mmHg 35%
    17:00 +28°C° 0 mm 4 mps 642 mmHg 40%
    18:00 +27°C° 0 mm 4 mps 641 mmHg 46%
    19:00 +25°C° 0 mm 4 mps 642 mmHg 51%
    20:00 +22°C° 0 mm 4 mps 642 mmHg 56%
    21:00 +21°C° 0 mm 3 mps 642 mmHg 61%
    22:00 +20°C° 0 mm 3 mps 642 mmHg 62%
    23:00 +20°C° 0 mm 3 mps 642 mmHg 62%
    Show more